Flag for Norway Weather past 2 weeks in Kongsvinger, Norway

Now
50 °F

Passing clouds.


Feels Like: 49 °F
Forecast: 36 / 64 °F
Wind: 3 mph from North

Location: Oslo Gardermoen Airport

Current Time: Sep 17, 2014 at 3:36:40 AM

Latest Report: Sep 17, 2014 at 2:50 AM


Visibility: N/A

Pressure: 30.30 "Hg

Humidity: 88%

Dew point: 46 °F

Location of KongsvingerLocation

Historic Weather in Kongsvinger — Graph

°F

Kongsvinger temperature yesterday

Maximum temperature yesterday: 63 °F (at 3:20 PM)
Minimum temperature yesterday: 43 °F (at 5:50 AM)
Average temperature yesterday: 53 °F

Past Weeks' High & Low Weather Summary

 TemperatureHumidityPressure
High70 °F (Sep 2, 3:20 PM)100% (Sep 3, 1:20 AM)30.48 "Hg (Sep 3, 1:20 AM)
Low39 °F (Sep 15, 7:20 AM)43% (Sep 5, 5:20 PM)29.74 "Hg (Sep 9, 4:20 AM)
Average56 °F79%30.19 "Hg
* Reported Sep 2 2:20 AM — Sep 17 2:20 AM, Kongsvinger, Weather by CustomWeather, © 2014

Note: Actual official high and low records may vary slightly from our data, if they occured in-between our weather recording intervals... More about our weather records

Advertising

Kongsvinger weather history for previous 24 hours

 ConditionsComfort  
Time TempWeatherWind HumidityBarometerVisibility
2:20 AM
Sep 17
50 °FPassing clouds.3 mph88%30.33 "HgN/A
1:50 AM50 °FOvercast.2 mph88%30.33 "HgN/A
1:20 AM50 °FOvercast.3 mph88%30.33 "HgN/A
12:50 AM48 °FPassing clouds.2 mph94%30.33 "HgN/A
12:20 AM48 °FPassing clouds.3 mph87%30.33 "HgN/A
11:50 PM
Sep 16
46 °FClear.5 mph93%30.33 "Hg10 mi
11:20 PM48 °FClear.5 mph87%30.33 "Hg10 mi
10:50 PM50 °FClear.5 mph88%30.33 "Hg10 mi
10:20 PM50 °FClear.6 mph88%30.33 "Hg10 mi
9:50 PM50 °FClear.5 mph94%30.33 "Hg10 mi
9:20 PM52 °FClear.5 mph88%30.33 "Hg10 mi
8:50 PM54 °FClear.2 mph82%30.33 "Hg10 mi
8:20 PM55 °FSunny.1 mph82%30.33 "Hg10 mi
7:50 PM57 °FPassing clouds.2 mph72%30.30 "HgN/A
7:20 PM59 °FPassing clouds.2 mph72%30.30 "HgN/A
6:50 PM61 °FScattered clouds.2 mph68%30.30 "HgN/A
6:20 PM61 °FScattered clouds.2 mph63%30.33 "HgN/A
5:50 PM61 °FScattered clouds.No wind63%30.33 "HgN/A
5:20 PM63 °FPartly sunny.1 mph59%30.33 "HgN/A
4:50 PM63 °FPartly sunny.2 mph59%30.33 "HgN/A
4:20 PM63 °FPartly sunny.3 mph59%30.33 "HgN/A
3:50 PM63 °FPartly sunny.3 mph59%30.33 "HgN/A
3:20 PM63 °FPartly sunny.1 mph59%30.36 "HgN/A
2:50 PM61 °FPartly sunny.1 mph63%30.36 "HgN/A
2:20 PM61 °FScattered clouds.2 mph63%30.36 "HgN/A
1:50 PM61 °FScattered clouds.1 mph63%30.36 "HgN/A
1:20 PM61 °FPassing clouds.No wind63%30.36 "HgN/A
12:50 PM59 °FPassing clouds.2 mph68%30.39 "HgN/A
11:50 AM59 °FPassing clouds.2 mph72%30.39 "HgN/A
11:20 AM55 °FSunny.No wind82%30.39 "Hg10 mi
10:50 AM54 °FFog.2 mph82%30.39 "HgN/A
10:20 AM54 °FFog.1 mph82%30.42 "HgN/A
9:50 AM52 °FFog.1 mph88%30.39 "HgN/A
9:20 AM52 °FFog.2 mph88%30.39 "HgN/A
8:50 AM50 °FFog.1 mph88%30.39 "HgN/A
8:20 AM48 °FFog.2 mph94%30.39 "HgN/A
7:50 AM45 °FFog.2 mph93%30.39 "HgN/A
7:20 AM43 °FFog.2 mph93%30.39 "HgN/A
6:50 AM43 °FFog.2 mph93%30.39 "HgN/A
6:20 AM43 °FFog.2 mph93%30.39 "HgN/A
5:50 AM43 °FClear.2 mph93%30.39 "HgN/A
4:50 AM45 °FClear.2 mph87%30.39 "HgN/A
4:20 AM45 °FQuite cool.2 mph93%30.39 "HgN/A
3:50 AM45 °FClear.2 mph87%30.39 "HgN/A
3:20 AM45 °FClear.2 mph87%30.39 "HgN/A
Weather by CustomWeather, © 2014

See weather overviewHow to use our weather pages